Powrót do katalogu

STARLINK-30378

AktywnyŁącznośćVLEO
NORAD 57787·PAYLOAD·🇺🇸 United States

Wystrzelony Sep 4, 2023 z Cape Canaveral Space Force Station

Loading…

Następne Przeloty (najbliższe 24 godziny)

TLE

ŚwieżeSource: CelesTrak SupGP

Epoka: Sep 14, 2026, 20:44 UTC

1 57787C 23134S   26257.86437500  .00024628  00000+0  89190-3 0  2570
2 57787  43.0035 206.2922 0001066 252.9803 216.1642 15.27570638    13

Śledź STARLINK-30378 w czasie rzeczywistym z AllMySat

Download on the App Store